When you browse on this site, cookies collect data to enhance your experience and personalize the content and advertising you see.
Visit our Privacy Policy to learn more. By continuing to use the site, you agree to this use of cookies and data.
  • en France
  • Liste des pays
  • À 7 jours
  • Température de l'eau
  • Carte météo
  • Widgets météo
  • user-avatar
    Se connecter

    Météo par heure à Ljubljana

    Ce jour, 14 Octobre, Lundi

    Heure Température Précipitation Vent Pression Humidité
    00:00 +8°C° 0 mm 1 m/s 670 mmHg 90%
    01:00 +8°C° 0 mm 1 m/s 670 mmHg 89%
    02:00 +8°C° 0 mm 1 m/s 670 mmHg 90%
    03:00 +8°C° 0 mm 1 m/s 669 mmHg 90%
    04:00 +8°C° 0 mm 1 m/s 669 mmHg 90%
    05:00 +8°C° 0 mm 1 m/s 669 mmHg 90%
    06:00 +8°C° 0 mm 1 m/s 669 mmHg 89%
    07:00 +8°C° 0 mm 1 m/s 669 mmHg 89%
    08:00 +10°C° 0 mm 1 m/s 670 mmHg 82%
    09:00 +12°C° 0 mm 1 m/s 670 mmHg 74%
    10:00 +15°C° 0 mm 1 m/s 671 mmHg 67%
    11:00 +16°C° 0 mm 1 m/s 671 mmHg 65%
    12:00 +18°C° 0 mm 1 m/s 671 mmHg 63%
    13:00 +19°C° 0 mm 1 m/s 671 mmHg 61%
    14:00 +18°C° 0 mm 1 m/s 670 mmHg 67%
    15:00 +16°C° 0 mm 1 m/s 669 mmHg 73%
    16:00 +15°C° 0 mm 1 m/s 669 mmHg 79%
    17:00 +13°C° 0 mm 1 m/s 669 mmHg 83%
    18:00 +12°C° 0 mm 1 m/s 668 mmHg 88%
    19:00 +10°C° 0 mm 1 m/s 668 mmHg 92%
    20:00 +10°C° 0 mm 1 m/s 668 mmHg 92%
    21:00 +9°C° 0 mm 1 m/s 668 mmHg 92%
    22:00 +9°C° 0 mm 1 m/s 667 mmHg 91%
    23:00 +9°C° 0 mm 1 m/s 667 mmHg 92%

    Demain, 15 Octobre, Mardi

    Heure Température Précipitation Vent Pression Humidité
    00:00 +8°C° 0 mm 1 m/s 667 mmHg 93%
    01:00 +8°C° 0 mm 1 m/s 667 mmHg 95%
    02:00 +8°C° 0 mm 1 m/s 667 mmHg 95%
    03:00 +8°C° 0 mm 1 m/s 666 mmHg 96%
    04:00 +8°C° 0 mm 1 m/s 666 mmHg 96%
    05:00 +8°C° 0 mm 1 m/s 666 mmHg 96%
    06:00 +8°C° 0 mm 1 m/s 666 mmHg 96%
    07:00 +9°C° 0 mm 1 m/s 666 mmHg 96%
    08:00 +10°C° 0 mm 1 m/s 666 mmHg 91%
    09:00 +11°C° 0 mm 1 m/s 666 mmHg 87%
    10:00 +13°C° 0 mm 2 m/s 666 mmHg 82%
    11:00 +13°C° 0.1 mm 2 m/s 666 mmHg 81%
    12:00 +14°C° 0.1 mm 2 m/s 666 mmHg 80%
    13:00 +14°C° 0.1 mm 2 m/s 666 mmHg 79%
    14:00 +14°C° 0 mm 2 m/s 666 mmHg 81%
    15:00 +13°C° 0 mm 2 m/s 665 mmHg 84%
    16:00 +13°C° 0 mm 2 m/s 665 mmHg 87%
    17:00 +12°C° 0 mm 2 m/s 665 mmHg 90%
    18:00 +12°C° 0 mm 2 m/s 665 mmHg 93%
    19:00 +11°C° 0 mm 1 m/s 665 mmHg 96%
    20:00 +11°C° 0 mm 1 m/s 665 mmHg 96%
    21:00 +11°C° 0 mm 1 m/s 665 mmHg 96%
    22:00 +11°C° 0 mm 1 m/s 665 mmHg 96%
    23:00 +11°C° 0.2 mm 1 m/s 665 mmHg 96%

    Après-demain, 16 Octobre, Mercredi

    Heure Température Précipitation Vent Pression Humidité
    00:00 +11°C° 0.2 mm 1 m/s 665 mmHg 96%
    01:00 +11°C° 0.2 mm 1 m/s 665 mmHg 96%
    02:00 +11°C° 0.3 mm 1 m/s 666 mmHg 96%
    03:00 +11°C° 0.3 mm 1 m/s 666 mmHg 97%
    04:00 +11°C° 0.3 mm 1 m/s 666 mmHg 97%
    05:00 +11°C° 0.3 mm 1 m/s 666 mmHg 97%
    06:00 +11°C° 0.3 mm 1 m/s 666 mmHg 98%
    07:00 +11°C° 0.3 mm 1 m/s 667 mmHg 98%
    08:00 +12°C° 0 mm 1 m/s 667 mmHg 92%
    09:00 +13°C° 0 mm 1 m/s 668 mmHg 87%
    10:00 +14°C° 0 mm 1 m/s 669 mmHg 82%
    11:00 +15°C° 0.1 mm 1 m/s 669 mmHg 76%
    12:00 +15°C° 0.1 mm 1 m/s 669 mmHg 69%
    13:00 +16°C° 0.1 mm 2 m/s 670 mmHg 63%
    14:00 +15°C° 0 mm 2 m/s 669 mmHg 65%
    15:00 +15°C° 0 mm 1 m/s 669 mmHg 67%
    16:00 +14°C° 0 mm 1 m/s 669 mmHg 69%
    17:00 +12°C° 0 mm 1 m/s 668 mmHg 76%
    18:00 +10°C° 0 mm 1 m/s 668 mmHg 82%
    19:00 +8°C° 0 mm 1 m/s 668 mmHg 89%
    20:00 +8°C° 0 mm 1 m/s 668 mmHg 90%
    21:00 +7°C° 0 mm 0 m/s 668 mmHg 92%
    22:00 +6°C° 0 mm 0 m/s 668 mmHg 94%
    23:00 +6°C° 0 mm 0 m/s 668 mmHg 94%

    17 Octobre, Jeudi

    Heure Température Précipitation Vent Pression Humidité
    00:00 +6°C° 0 mm 0 m/s 668 mmHg 94%
    01:00 +6°C° 0 mm 0 m/s 668 mmHg 95%
    02:00 +6°C° 0 mm 0 m/s 668 mmHg 95%
    03:00 +5°C° 0 mm 0 m/s 667 mmHg 95%
    04:00 +5°C° 0 mm 0 m/s 667 mmHg 95%
    05:00 +5°C° 0 mm 0 m/s 667 mmHg 94%
    06:00 +5°C° 0 mm 0 m/s 667 mmHg 93%
    07:00 +5°C° 0 mm 0 m/s 667 mmHg 93%
    08:00 +7°C° 0 mm 0 m/s 668 mmHg 85%
    09:00 +9°C° 0 mm 0 m/s 668 mmHg 78%
    10:00 +11°C° 0 mm 0 m/s 669 mmHg 71%
    11:00 +13°C° 0 mm 1 m/s 669 mmHg 68%
    12:00 +14°C° 0 mm 1 m/s 669 mmHg 64%
    13:00 +15°C° 0 mm 1 m/s 669 mmHg 61%
    14:00 +14°C° 0 mm 1 m/s 669 mmHg 64%
    15:00 +14°C° 0 mm 1 m/s 669 mmHg 68%
    16:00 +13°C° 0 mm 1 m/s 668 mmHg 71%
    17:00 +11°C° 0 mm 1 m/s 668 mmHg 78%
    18:00 +10°C° 0 mm 1 m/s 668 mmHg 84%
    19:00 +8°C° 0 mm 1 m/s 668 mmHg 90%
    20:00 +8°C° 0 mm 1 m/s 668 mmHg 90%
    21:00 +7°C° 0 mm 1 m/s 668 mmHg 90%
    22:00 +6°C° 0 mm 0 m/s 669 mmHg 91%
    23:00 +6°C° 0 mm 0 m/s 668 mmHg 91%

    18 Octobre, Vendredi

    Heure Température Précipitation Vent Pression Humidité
    00:00 +5°C° 0 mm 0 m/s 668 mmHg 92%
    01:00 +5°C° 0 mm 0 m/s 668 mmHg 92%
    02:00 +5°C° 0 mm 0 m/s 668 mmHg 92%
    03:00 +5°C° 0 mm 0 m/s 668 mmHg 93%
    04:00 +5°C° 0 mm 0 m/s 668 mmHg 93%
    05:00 +5°C° 0 mm 0 m/s 668 mmHg 93%
    06:00 +5°C° 0 mm 0 m/s 668 mmHg 92%
    07:00 +5°C° 0 mm 0 m/s 668 mmHg 92%
    08:00 +7°C° 0 mm 0 m/s 669 mmHg 85%
    09:00 +9°C° 0 mm 0 m/s 669 mmHg 77%
    10:00 +11°C° 0 mm 0 m/s 670 mmHg 70%
    11:00 +12°C° 0 mm 0 m/s 670 mmHg 68%
    12:00 +13°C° 0 mm 0 m/s 669 mmHg 66%
    13:00 +14°C° 0 mm 1 m/s 669 mmHg 63%
    14:00 +14°C° 0 mm 1 m/s 669 mmHg 68%
    15:00 +13°C° 0 mm 1 m/s 669 mmHg 72%
    16:00 +13°C° 0 mm 1 m/s 669 mmHg 77%
    17:00 +11°C° 0 mm 1 m/s 668 mmHg 82%
    18:00 +9°C° 0 mm 1 m/s 668 mmHg 88%
    19:00 +8°C° 0 mm 1 m/s 668 mmHg 93%
    20:00 +8°C° 0 mm 1 m/s 668 mmHg 93%
    21:00 +7°C° 0 mm 1 m/s 668 mmHg 94%
    22:00 +7°C° 0 mm 1 m/s 668 mmHg 94%
    23:00 +7°C° 0 mm 1 m/s 668 mmHg 94%

    19 Octobre, Samedi

    Heure Température Précipitation Vent Pression Humidité
    00:00 +5°C° 0 mm 0 m/s 668 mmHg 94%
    01:00 +5°C° 0 mm 0 m/s 667 mmHg 94%
    02:00 +5°C° 0 mm 0 m/s 667 mmHg 94%
    03:00 +5°C° 0 mm 0 m/s 667 mmHg 94%
    04:00 +5°C° 0 mm 0 m/s 667 mmHg 94%
    05:00 +5°C° 0 mm 0 m/s 667 mmHg 94%
    06:00 +5°C° 0 mm 0 m/s 667 mmHg 94%
    07:00 +5°C° 0 mm 0 m/s 667 mmHg 94%
    08:00 +7°C° 0 mm 0 m/s 667 mmHg 88%
    09:00 +10°C° 0 mm 1 m/s 668 mmHg 81%
    10:00 +12°C° 0 mm 1 m/s 668 mmHg 75%
    11:00 +13°C° 0 mm 1 m/s 668 mmHg 73%
    12:00 +13°C° 0 mm 1 m/s 668 mmHg 71%
    13:00 +14°C° 0 mm 1 m/s 668 mmHg 70%
    14:00 +13°C° 0 mm 1 m/s 667 mmHg 73%
    15:00 +12°C° 0 mm 1 m/s 667 mmHg 77%
    16:00 +12°C° 0 mm 2 m/s 666 mmHg 80%
    17:00 +10°C° 0 mm 1 m/s 666 mmHg 85%
    18:00 +9°C° 0 mm 1 m/s 666 mmHg 90%
    19:00 +8°C° 0 mm 1 m/s 665 mmHg 96%
    20:00 +7°C° 0 mm 1 m/s 666 mmHg 96%
    21:00 +7°C° 0 mm 1 m/s 666 mmHg 96%
    22:00 +7°C° 0 mm 1 m/s 666 mmHg 96%
    23:00 +7°C° 0 mm 1 m/s 665 mmHg 96%
    Voir plus